Date String (YYYY-MM-DD hh:mm:ss) UTC,Instrument flags,Ambient pressure (hPa),Sample flow (lpm),Bypass flow (lpm),Sample temperature (°C),Ambient temperature (°C),ASC tube jacket temperature (°C),LED temperature (°C),Box temperature (°C),Sample RH (%),Span deviation,Mass concentration (μg/m³),Mass concentration (μg/m³),Mass concentration (μg/m³)
DateTimeUTC,F1_M11,P_M11,Q1_M11,Q2_M11,T1_M11,T2_M11,T3_M11,T4_M11,T5_M11,U1_M11,ZSPAN_M11,X0_M11,X2_M11,X1_M11
2021-09-21 13:00:00,,0840.3,5.00,0.00,27.8,26.8,00.0,37.0,29.5,17.8,0000.0,0002.44,0001.76,0001.53
2021-09-21 13:01:00,,0840.3,5.02,0.00,27.8,26.8,00.0,37.0,29.5,17.9,0000.0,0002.41,0001.75,0001.52
2021-09-21 13:02:00,,0840.3,4.99,0.00,27.8,26.8,00.0,37.0,29.5,17.9,0000.0,0002.43,0001.75,0001.52
2021-09-21 13:03:00,,0840.3,5.00,0.00,27.8,26.8,00.0,37.0,29.5,17.7,0000.0,0002.54,0001.78,0001.52
2021-09-21 13:04:00,,0840.3,5.00,0.00,27.8,26.8,00.0,37.0,29.5,17.5,0000.0,0002.69,0001.83,0001.53
2021-09-21 13:05:00,,0840.3,5.01,0.00,27.7,26.7,00.0,36.9,29.5,17.4,0000.0,0002.64,0001.84,0001.53
2021-09-21 13:06:00,,0840.3,4.99,0.00,27.7,26.7,00.0,36.9,29.4,17.3,0000.0,0002.62,0001.84,0001.53
2021-09-21 13:07:00,,0840.4,4.98,0.00,27.7,26.7,00.0,36.9,29.5,17.3,0000.0,0002.55,0001.81,0001.52
2021-09-21 13:08:00,,0840.3,5.02,0.00,27.7,26.7,00.0,36.9,29.4,17.4,0000.0,0002.50,0001.78,0001.52
2021-09-21 13:09:00,,0840.3,5.00,0.00,27.7,26.7,00.0,36.9,29.4,17.5,0000.0,0002.76,0001.79,0001.51
2021-09-21 13:10:00,,0840.3,4.99,0.00,27.7,26.6,00.0,36.9,29.4,17.4,0000.0,0002.89,0001.77,0001.51
2021-09-21 13:11:00,,0840.3,5.01,0.00,27.7,26.6,00.0,36.9,29.4,17.3,0000.0,0002.91,0001.77,0001.50
2021-09-21 13:12:00,,0840.3,5.00,0.00,27.7,26.6,00.0,36.9,29.4,17.1,0000.0,0002.91,0001.77,0001.50
2021-09-21 13:13:00,,0840.4,4.99,0.00,27.7,26.6,00.0,36.9,29.4,17.0,0000.0,0002.86,0001.75,0001.49
2021-09-21 13:14:00,,0840.4,4.99,0.00,27.7,26.6,00.0,36.9,29.4,16.9,0000.0,0002.78,0001.71,0001.47
2021-09-21 13:15:00,,0840.4,5.00,0.00,27.7,26.5,00.0,36.8,29.4,16.8,0000.0,0002.67,0001.68,0001.46
2021-09-21 13:16:00,,0840.4,4.99,0.00,27.6,26.5,00.0,36.8,29.3,16.9,0000.0,0002.71,0001.69,0001.47
2021-09-21 13:17:00,,0840.4,5.00,0.00,27.6,26.5,00.0,36.8,29.4,16.9,0000.0,0002.82,0001.70,0001.48
2021-09-21 13:18:00,,0840.4,4.99,0.00,27.6,26.5,00.0,36.8,29.4,16.8,0000.0,0002.84,0001.71,0001.48
2021-09-21 13:19:00,,0840.4,5.00,0.00,27.6,26.5,00.0,36.8,29.3,16.7,0000.0,0002.96,0001.71,0001.48
2021-09-21 13:20:00,,0840.5,4.99,0.00,27.6,26.5,00.0,36.8,29.3,16.7,0000.0,0002.80,0001.72,0001.49
2021-09-21 13:21:00,,0840.5,4.99,0.00,27.6,26.4,00.0,36.8,29.3,16.7,0000.0,0002.57,0001.71,0001.49
2021-09-21 13:22:00,,0840.5,5.01,0.00,27.6,26.5,00.0,36.8,29.3,16.7,0000.0,0002.60,0001.72,0001.48
2021-09-21 13:23:00,,0840.5,4.99,0.00,27.6,26.5,00.0,36.8,29.3,16.8,0000.0,0002.60,0001.71,0001.47
2021-09-21 13:24:00,,0840.5,5.00,0.00,27.6,26.4,00.0,36.8,29.3,16.8,0000.0,0002.62,0001.72,0001.47
2021-09-21 13:25:00,,0840.5,5.01,0.00,27.6,26.5,00.0,36.8,29.3,16.7,0000.0,0002.59,0001.73,0001.48
2021-09-21 13:26:00,,0840.6,5.00,0.00,27.6,26.4,00.0,36.8,29.3,16.7,0000.0,0002.60,0001.73,0001.48
2021-09-21 13:27:00,,0840.6,4.99,0.00,27.6,26.4,00.0,36.8,29.3,16.7,0000.0,0002.55,0001.72,0001.48
2021-09-21 13:28:00,,0840.6,5.00,0.00,27.6,26.5,00.0,36.8,29.3,16.8,0000.0,0002.39,0001.70,0001.47
2021-09-21 13:29:00,,0840.6,5.00,0.00,27.6,26.5,00.0,36.8,29.3,17.0,0000.0,0002.34,0001.68,0001.47
2021-09-21 13:30:00,,0840.6,4.99,0.00,27.6,26.5,00.0,36.8,29.3,16.8,0000.0,0003.93,0001.64,0001.45
2021-09-21 13:31:00,,0840.6,5.02,0.00,27.6,26.5,00.0,36.8,29.2,16.7,0000.0,0003.85,0001.60,0001.45
2021-09-21 13:32:00,,0840.6,5.00,0.00,27.5,26.5,00.0,36.7,29.3,16.7,0000.0,0003.86,0001.59,0001.44
2021-09-21 13:33:00,,0840.7,5.00,0.00,27.5,26.5,00.0,36.7,29.3,16.7,0000.0,0003.80,0001.56,0001.44
2021-09-21 13:34:00,,0840.6,5.00,0.00,27.5,26.5,00.0,36.7,29.3,16.9,0000.0,0003.83,0001.58,0001.44
2021-09-21 13:35:00,,0840.6,5.00,0.00,27.5,26.5,00.0,36.7,29.3,16.8,0000.0,0003.87,0001.59,0001.44
2021-09-21 13:36:00,,0840.6,5.01,0.00,27.5,26.5,00.0,36.7,29.3,16.7,0000.0,0003.87,0001.58,0001.44
2021-09-21 13:37:00,,0840.6,5.00,0.00,27.5,26.5,00.0,36.7,29.3,16.6,0000.0,0003.82,0001.55,0001.42
2021-09-21 13:38:00,,0840.6,5.00,0.00,27.5,26.5,00.0,36.7,29.3,16.5,0000.0,0003.81,0001.54,0001.42
2021-09-21 13:39:00,,0840.6,5.00,0.00,27.5,26.4,00.0,36.7,29.3,16.5,0000.0,0003.82,0001.55,0001.42
2021-09-21 13:40:00,,0840.6,5.01,0.00,27.5,26.5,00.0,36.7,29.3,16.6,0000.0,0003.88,0001.57,0001.42
2021-09-21 13:41:00,,0840.6,5.00,0.00,27.5,26.5,00.0,36.7,29.3,16.7,0000.0,0002.46,0001.58,0001.42
2021-09-21 13:42:00,,0840.7,5.00,0.00,27.5,26.4,00.0,36.7,29.3,16.8,0000.0,0002.12,0001.59,0001.42
2021-09-21 13:43:00,,0840.6,4.99,0.00,27.5,26.4,00.0,36.7,29.3,17.0,0000.0,0002.11,0001.59,0001.42
2021-09-21 13:44:00,,0840.7,5.00,0.00,27.5,26.4,00.0,36.7,29.3,17.1,0000.0,0002.12,0001.60,0001.42
2021-09-21 13:45:00,,0840.7,5.00,0.00,27.5,26.4,00.0,36.7,29.3,17.1,0000.0,0002.24,0001.60,0001.42
2021-09-21 13:46:00,,0840.6,5.01,0.00,27.5,26.4,00.0,36.7,29.3,17.2,0000.0,0002.25,0001.59,0001.42
2021-09-21 13:47:00,,0840.7,5.01,0.00,27.5,26.4,00.0,36.7,29.3,17.2,0000.0,0002.30,0001.61,0001.42
2021-09-21 13:48:00,,0840.7,5.00,0.00,27.5,26.4,00.0,36.7,29.3,17.1,0000.0,0002.34,0001.62,0001.42
2021-09-21 13:49:00,,0840.7,4.99,0.00,27.5,26.4,00.0,36.7,29.3,17.2,0000.0,0002.31,0001.61,0001.42
2021-09-21 13:50:00,,0840.7,5.00,0.00,27.6,26.4,00.0,36.7,29.3,17.3,0000.0,0002.29,0001.60,0001.42
2021-09-21 13:51:00,,0840.7,5.01,0.00,27.6,26.4,00.0,36.7,29.4,17.5,0000.0,0002.34,0001.62,0001.42
2021-09-21 13:52:00,,0840.7,5.01,0.00,27.5,26.4,00.0,36.7,29.3,17.3,0000.0,0002.37,0001.63,0001.41
2021-09-21 13:53:00,,0840.7,5.00,0.00,27.6,26.4,00.0,36.7,29.3,17.0,0000.0,0002.34,0001.62,0001.40
2021-09-21 13:54:00,,0840.7,5.01,0.00,27.6,26.4,00.0,36.7,29.3,17.2,0000.0,0002.29,0001.59,0001.39
2021-09-21 13:55:00,,0840.7,4.99,0.00,27.6,26.5,00.0,36.7,29.3,17.8,0000.0,0002.30,0001.59,0001.38
2021-09-21 13:56:00,,0840.7,5.01,0.00,27.6,26.5,00.0,36.7,29.3,17.8,0000.0,0002.15,0001.58,0001.37
2021-09-21 13:57:00,,0840.7,5.00,0.00,27.6,26.5,00.0,36.7,29.4,17.4,0000.0,0002.16,0001.57,0001.37
2021-09-21 13:58:00,,0840.7,4.99,0.00,27.6,26.5,00.0,36.7,29.3,17.6,0000.0,0002.08,0001.54,0001.36
2021-09-21 13:59:00,,0840.7,5.01,0.00,27.6,26.5,00.0,36.7,29.4,17.1,0000.0,0002.09,0001.55,0001.37
